Location: Dallas
(32.7833°N, 96.8000°W)
Time: 00:09:19
(UTC-05:00)

ISS - Visible Passes

Search period start: 28 July 2021 00:00
Search period end: 07 August 2021 00:00
Orbit: 419 x 421 km, 51.6° (Epoch: 28 July)

Date Brightness Start Highest point End Pass type
(mag) Time Alt. Az. Time Alt. Az. Time Alt. Az.
28 Jul -0.9 23:12:25 10° NNW 23:13:28 17° NNW 23:13:28 17° NNW visible
29 Jul -1.6 22:25:35 10° NNW 22:27:52 19° NNE 22:27:52 19° NNE visible
30 Jul -1.2 21:39:06 10° N 21:40:40 13° NNE 21:42:14 10° ENE visible
30 Jul -0.8 23:14:28 10° NW 23:15:19 17° NW 23:15:19 17° NW visible
31 Jul -2.7 22:27:20 10° NW 22:29:53 43° N 22:29:53 43° N visible
01 Aug -2.5 21:40:23 10° NNW 21:43:27 31° NE 21:44:33 25° ENE visible
02 Aug -1.8 20:53:39 10° NNW 20:56:12 20° NE 20:58:44 10° E visible
02 Aug -2.1 22:30:00 10° WNW 22:32:18 30° W 22:32:18 30° W visible
03 Aug -3.7 21:42:42 10° NW 21:46:03 69° SW 21:47:09 38° SSE visible
04 Aug -3.5 20:55:39 10° NW 20:59:00 60° NE 21:02:08 11° ESE visible
05 Aug -1.4 21:46:12 10° W 21:48:33 18° SW 21:50:14 13° SSW visible
06 Aug -2.3 20:58:36 10° WNW 21:01:40 32° SW 21:04:43 10° SSE visible
